Location: Corralito
(10.2667°N, 66.9500°W)
Time: 03:42:49
(UTC+00:00)

Cosmos 1331 Rocket - Pass Details

Date: 09 December 2023
Orbit: 748 x 775 km, 74.0° (Epoch: 22 February)

Event Time Altitude Azimuth Distance (km) Brightness Sun altitude
Rises 09:26:59 0° 7° (N) 3,197 7.1 -16.1°
Reaches altitude 10° 09:29:43 10° 20° (NNE) 2,269 6.4 -15.5°
Maximum altitude 09:33:55 25° 75° (ENE) 1,469 6.1 -14.5°
Drops below altitude 10° 09:38:06 10° 130° (SE) 2,261 7.7 -13.5°
Sets 09:40:49 0° 143° (SE) 3,184 8.3 -12.9°
